Location: Caltech
(34.1382°N, 118.1253°W)
Time: 08:33:18
(UTC-07:00)

ERBS - Visible Passes

Search period start: 27 September 2016 00:00
Search period end: 07 October 2016 00:00
Orbit: 435 x 447 km, 57.0° (Epoch: 26 September)

Date Brightness Start Highest point End Pass type
(mag) Time Alt. Az. Time Alt. Az. Time Alt. Az.
01 Oct 5.1 20:12:31 10° N 20:12:45 11° NNE 20:12:45 11° NNE visible
03 Oct 4.4 20:27:40 10° NNW 20:29:09 22° NNW 20:29:09 22° NNW visible
04 Oct 3.4 19:47:46 10° NNW 19:50:47 29° NE 19:50:47 29° NE visible
05 Oct 4.0 19:08:01 10° N 19:10:37 19° NE 19:12:32 13° E visible
05 Oct 4.9 20:44:20 10° WNW 20:46:00 22° W 20:46:00 22° W visible
06 Oct 3.0 20:03:55 10° NW 20:07:21 53° SW 20:07:56 46° SSW visible
